Flag for U.S.A. Weather past 2 weeks in Jersey City, New Jersey, U.S.A.

54 °F

Partly cloudy.

Feels Like: 51 °F
Forecast: 49 / 60 °F
Wind: 9 mph from Southwest

Location: Newark International Airport

Current Time: Nov 28, 2015 at 1:22:24 AM

Latest Report: Nov 28, 2015 at 12:51 AM

Visibility: 10 mi

Pressure: 30.22 "Hg

Humidity: 74%

Dew point: 46 °F

Location of Jersey CityLocation

Historic Weather in Jersey City — Graph


Jersey City temperature yesterday

Maximum temperature yesterday: 66 °F (at 1:51 PM)
Minimum temperature yesterday: 43 °F (at 5:51 AM)
Average temperature yesterday: 53 °F

Past Weeks' High & Low Weather Summary

High70 °F (Nov 16, 2:51 PM)100% (Nov 19, 9:51 PM)30.82 "Hg (Nov 19, 9:51 PM)
Low27 °F (Nov 24, 1:51 AM)20% (Nov 20, 2:51 PM)29.57 "Hg (Nov 12, 11:51 PM)
Average49 °F58%30.25 "Hg
* Reported Nov 12 11:51 PM — Nov 27 11:51 PM, Jersey City, Weather by CustomWeather, © 2015

Note: Actual official high and low records may vary slightly from our data, if they occured in-between our weather recording intervals... More about our weather records


Jersey City weather history for previous 24 hours

Time TempWeatherWind HumidityBarometerVisibility
11:51 PM
Fri, Nov 27
54 °FPartly cloudy.6 mph74%30.23 "Hg10 mi
10:51 PM55 °FOvercast.8 mph69%30.24 "Hg10 mi
9:51 PM55 °FPassing clouds.9 mph67%30.26 "Hg10 mi
8:51 PM56 °FPassing clouds.8 mph65%30.27 "Hg10 mi
7:51 PM56 °FPassing clouds.10 mph65%30.28 "Hg10 mi
6:51 PM59 °FPassing clouds.10 mph60%30.29 "Hg10 mi
5:51 PM61 °FPassing clouds.6 mph58%30.29 "Hg10 mi
4:51 PM62 °FPassing clouds.7 mph58%30.32 "Hg10 mi
3:51 PM64 °FPartly sunny.8 mph52%30.33 "Hg10 mi
2:51 PM66 °FPartly sunny.12 mph49%30.36 "Hg10 mi
1:51 PM66 °FPartly sunny.10 mph49%30.38 "Hg10 mi
12:51 PM64 °FPartly sunny.9 mph58%30.41 "Hg10 mi
11:51 AM60 °FPartly sunny.9 mph67%30.46 "Hg10 mi
10:51 AM58 °FPartly sunny.9 mph72%30.50 "Hg10 mi
9:51 AM49 °FFog.No wind97%30.52 "Hg6 mi
8:59 AM46 °FFog.No wind100%30.53 "Hg0 mi
7:51 AM45 °FFog.No wind100%30.53 "Hg0 mi
6:51 AM44 °FFog.No wind100%30.55 "Hg6 mi
6:00 AM45 °FFog.No wind93%30.56 "Hg3 mi
5:51 AM43 °FFog.No wind93%30.56 "Hg1 mi
4:51 AM44 °FFog.No wind100%30.56 "Hg6 mi
4:00 AM45 °FFog.No wind93%30.57 "Hg4 mi
3:51 AM46 °FFog.No wind96%30.57 "Hg4 mi
3:02 AM45 °FFog.No wind100%30.60 "Hg3 mi
2:51 AM45 °FFog.No wind100%30.60 "Hg4 mi
1:51 AM48 °FPassing clouds.No wind100%30.61 "Hg9 mi
Weather by CustomWeather, © 2015

See weather overviewHow to use our weather pages